When you browse on this site, cookies collect data to enhance your experience and personalize the content and advertising you see.
Visit our Privacy Policy to learn more. By continuing to use the site, you agree to this use of cookies and data.
  • In Slovakia
  • List of Countries
  • For 7 days
  • Water Temperature
  • Satellite Maps
  • Weather Map
  • Weather Widgets
  • user-avatar
    Login

    Hourly Weather Bremen

    Today, 18 January, Friday

    Time Temperature Precipitation Wind Pressure Humidity
    00:00 -2°C° 0 mm 4 mps 755 mmHg 84%
    01:00 -2°C° 0 mm 3 mps 757 mmHg 84%
    02:00 -2°C° 0 mm 3 mps 757 mmHg 84%
    03:00 -2°C° 0 mm 2 mps 758 mmHg 83%
    04:00 -2°C° 0 mm 2 mps 759 mmHg 82%
    05:00 -2°C° 0 mm 2 mps 760 mmHg 83%
    06:00 -2°C° 0 mm 2 mps 760 mmHg 84%
    07:00 -2°C° 0 mm 2 mps 761 mmHg 85%
    08:00 -2°C° 0 mm 3 mps 761 mmHg 82%
    09:00 -2°C° 0 mm 4 mps 762 mmHg 78%
    10:00 -1°C° 0 mm 4 mps 762 mmHg 74%
    11:00 0°C° 0 mm 5 mps 762 mmHg 72%
    12:00 +1°C° 0 mm 5 mps 762 mmHg 69%
    13:00 +2°C° 0 mm 5 mps 762 mmHg 66%
    14:00 +1°C° 0 mm 5 mps 763 mmHg 70%
    15:00 +1°C° 0 mm 4 mps 763 mmHg 73%
    16:00 +2°C° 0 mm 3 mps 763 mmHg 76%
    17:00 +1°C° 0 mm 3 mps 763 mmHg 79%
    18:00 0°C° 0 mm 3 mps 763 mmHg 83%
    19:00 -1°C° 0 mm 3 mps 763 mmHg 86%
    20:00 -1°C° 0 mm 3 mps 763 mmHg 86%
    21:00 -1°C° 0 mm 2 mps 764 mmHg 86%
    22:00 -2°C° 0 mm 2 mps 764 mmHg 85%
    23:00 -2°C° 0 mm 2 mps 764 mmHg 84%

    Tomorrow, 19 January, Saturday

    Time Temperature Precipitation Wind Pressure Humidity
    00:00 -2°C° 0 mm 2 mps 764 mmHg 83%
    01:00 -2°C° 0 mm 2 mps 764 mmHg 83%
    02:00 -2°C° 0 mm 2 mps 764 mmHg 82%
    03:00 0°C° 0 mm 1 mps 764 mmHg 81%
    04:00 0°C° 0 mm 1 mps 764 mmHg 80%
    05:00 0°C° 0 mm 1 mps 763 mmHg 79%
    06:00 -2°C° 0 mm 2 mps 763 mmHg 78%
    07:00 -2°C° 0 mm 2 mps 763 mmHg 77%
    08:00 -2°C° 0 mm 2 mps 763 mmHg 74%
    09:00 -1°C° 0 mm 2 mps 763 mmHg 71%
    10:00 -1°C° 0 mm 2 mps 763 mmHg 68%
    11:00 +1°C° 0 mm 2 mps 763 mmHg 62%
    12:00 +2°C° 0 mm 2 mps 763 mmHg 56%
    13:00 +3°C° 0 mm 2 mps 763 mmHg 50%
    14:00 +2°C° 0 mm 2 mps 762 mmHg 53%
    15:00 +2°C° 0 mm 2 mps 762 mmHg 57%
    16:00 +1°C° 0 mm 2 mps 762 mmHg 60%
    17:00 -1°C° 0 mm 2 mps 762 mmHg 64%
    18:00 -1°C° 0 mm 2 mps 762 mmHg 68%
    19:00 -2°C° 0 mm 2 mps 762 mmHg 72%
    20:00 -2°C° 0 mm 2 mps 762 mmHg 74%
    21:00 -2°C° 0 mm 2 mps 762 mmHg 77%
    22:00 -2°C° 0 mm 2 mps 762 mmHg 80%
    23:00 -3°C° 0 mm 2 mps 762 mmHg 78%

    Day after tomorrow, 20 January, Sunday

    Time Temperature Precipitation Wind Pressure Humidity
    00:00 -3°C° 0 mm 2 mps 762 mmHg 77%
    01:00 -3°C° 0 mm 2 mps 762 mmHg 75%
    02:00 -3°C° 0 mm 2 mps 762 mmHg 73%
    03:00 -3°C° 0 mm 2 mps 762 mmHg 72%
    04:00 -1°C° 0 mm 1 mps 762 mmHg 70%
    05:00 -1°C° 0 mm 1 mps 762 mmHg 70%
    06:00 -1°C° 0 mm 1 mps 762 mmHg 71%
    07:00 -3°C° 0 mm 2 mps 762 mmHg 71%
    08:00 -3°C° 0 mm 2 mps 762 mmHg 69%
    09:00 -2°C° 0 mm 2 mps 763 mmHg 68%
    10:00 -2°C° 0 mm 2 mps 763 mmHg 67%
    11:00 -1°C° 0 mm 2 mps 763 mmHg 62%
    12:00 +1°C° 0 mm 2 mps 763 mmHg 58%
    13:00 +3°C° 0 mm 1 mps 763 mmHg 53%
    14:00 +3°C° 0 mm 1 mps 764 mmHg 57%
    15:00 +2°C° 0 mm 1 mps 764 mmHg 60%
    16:00 +2°C° 0 mm 1 mps 764 mmHg 64%
    17:00 +1°C° 0 mm 1 mps 764 mmHg 66%
    18:00 0°C° 0 mm 1 mps 765 mmHg 68%
    19:00 -1°C° 0 mm 1 mps 765 mmHg 70%
    20:00 -1°C° 0 mm 1 mps 766 mmHg 70%
    21:00 -1°C° 0 mm 1 mps 766 mmHg 70%
    22:00 -1°C° 0 mm 1 mps 766 mmHg 69%
    23:00 -1°C° 0 mm 1 mps 767 mmHg 69%

    21 January, Monday

    Time Temperature Precipitation Wind Pressure Humidity
    00:00 -1°C° 0 mm 1 mps 767 mmHg 68%
    01:00 -1°C° 0 mm 1 mps 767 mmHg 67%
    02:00 -1°C° 0 mm 1 mps 767 mmHg 66%
    03:00 -1°C° 0 mm 1 mps 767 mmHg 65%
    04:00 -1°C° 0 mm 1 mps 767 mmHg 65%
    05:00 -1°C° 0 mm 1 mps 767 mmHg 64%
    06:00 -4°C° 0 mm 2 mps 767 mmHg 63%
    07:00 -4°C° 0 mm 2 mps 767 mmHg 63%
    08:00 -3°C° 0 mm 2 mps 767 mmHg 61%
    09:00 -4°C° 0 mm 3 mps 767 mmHg 58%
    10:00 -2°C° 0 mm 3 mps 767 mmHg 56%
    11:00 -1°C° 0 mm 3 mps 767 mmHg 53%
    12:00 0°C° 0 mm 3 mps 767 mmHg 50%
    13:00 0°C° 0 mm 4 mps 766 mmHg 47%
    14:00 0°C° 0 mm 4 mps 766 mmHg 49%
    15:00 0°C° 0 mm 3 mps 766 mmHg 51%
    16:00 0°C° 0 mm 3 mps 765 mmHg 53%
    17:00 -1°C° 0 mm 3 mps 765 mmHg 55%
    18:00 -2°C° 0 mm 3 mps 765 mmHg 57%
    19:00 -2°C° 0 mm 3 mps 764 mmHg 59%
    20:00 -4°C° 0 mm 3 mps 764 mmHg 59%
    21:00 -4°C° 0 mm 4 mps 763 mmHg 59%
    22:00 -4°C° 0 mm 4 mps 763 mmHg 59%
    23:00 -4°C° 0 mm 4 mps 762 mmHg 57%

    22 January, Tuesday

    Time Temperature Precipitation Wind Pressure Humidity
    00:00 -4°C° 0 mm 4 mps 761 mmHg 56%
    01:00 -5°C° 0 mm 5 mps 760 mmHg 54%
    02:00 -4°C° 0 mm 5 mps 759 mmHg 53%
    03:00 -4°C° 0 mm 5 mps 758 mmHg 51%
    04:00 -3°C° 0 mm 6 mps 756 mmHg 49%
    05:00 -3°C° 0 mm 6 mps 755 mmHg 51%
    06:00 -3°C° 0 mm 6 mps 754 mmHg 53%
    07:00 -3°C° 0 mm 7 mps 752 mmHg 56%
    08:00 -3°C° 0.5 mm 7 mps 751 mmHg 66%
    09:00 -4°C° 0.5 mm 8 mps 750 mmHg 76%
    10:00 -4°C° 0.5 mm 9 mps 749 mmHg 86%
    11:00 -4°C° 0.7 mm 8 mps 748 mmHg 87%
    12:00 -2°C° 0.7 mm 7 mps 747 mmHg 88%
    13:00 -1°C° 0.7 mm 6 mps 747 mmHg 89%
    14:00 -1°C° 0.2 mm 6 mps 746 mmHg 88%
    15:00 -1°C° 0.2 mm 5 mps 746 mmHg 88%
    16:00 -1°C° 0.2 mm 4 mps 745 mmHg 87%
    17:00 -2°C° 0 mm 4 mps 745 mmHg 88%
    18:00 -2°C° 0 mm 4 mps 745 mmHg 90%
    19:00 -3°C° 0 mm 4 mps 745 mmHg 91%
    20:00 -3°C° 0 mm 4 mps 744 mmHg 91%
    21:00 -3°C° 0 mm 4 mps 744 mmHg 92%
    22:00 -4°C° 0 mm 4 mps 744 mmHg 92%
    23:00 -4°C° 0 mm 4 mps 744 mmHg 92%

    23 January, Wednesday

    Time Temperature Precipitation Wind Pressure Humidity
    00:00 -4°C° 0 mm 4 mps 744 mmHg 92%
    01:00 -4°C° 0 mm 4 mps 743 mmHg 92%
    02:00 -4°C° 0 mm 4 mps 743 mmHg 93%
    03:00 -4°C° 0 mm 4 mps 742 mmHg 93%
    04:00 -5°C° 0 mm 4 mps 742 mmHg 94%
    05:00 -5°C° 0 mm 4 mps 742 mmHg 94%
    06:00 -5°C° 0 mm 4 mps 741 mmHg 95%
    07:00 -5°C° 0 mm 3 mps 741 mmHg 95%
    08:00 -5°C° 0 mm 3 mps 741 mmHg 94%
    09:00 -5°C° 0 mm 3 mps 741 mmHg 94%
    10:00 -4°C° 0 mm 3 mps 741 mmHg 93%
    11:00 -2°C° 0 mm 3 mps 741 mmHg 92%
    12:00 -2°C° 0 mm 3 mps 741 mmHg 90%
    13:00 -1°C° 0 mm 3 mps 741 mmHg 89%
    14:00 -1°C° 0 mm 2 mps 741 mmHg 90%
    15:00 -2°C° 0 mm 2 mps 741 mmHg 92%
    16:00 -2°C° 0 mm 2 mps 741 mmHg 93%
    17:00 -2°C° 0 mm 2 mps 742 mmHg 94%
    18:00 -1°C° 0 mm 1 mps 742 mmHg 94%
    19:00 -2°C° 0 mm 1 mps 742 mmHg 94%
    20:00 -2°C° 0 mm 1 mps 743 mmHg 94%
    21:00 -2°C° 0 mm 1 mps 743 mmHg 94%
    22:00 -2°C° 0 mm 1 mps 743 mmHg 94%
    23:00 -2°C° 0 mm 1 mps 744 mmHg 93%
    Show more